Home > Weather > Alexandria > Past weeks

Flag for Egypt Past Weather in Alexandria, Egypt — Yesterday and Last 2 Weeks

Now
88 °F

Sunny.


Feels Like: 90 °F
Forecast: 78 / 86 °F
Wind: 10 mph from Northwest

Location: Alexandria / Nouzha

Current Time: Jul 26, 2016 at 2:19:15 PM

Latest Report: Jul 26, 2016 at 1:00 PM


Visibility: 10 mi

Pressure: 29.77 "Hg

Humidity: 49%

Dew Point: 66 °F

Location of AlexandriaLocation

Past Weather in Alexandria — Graph

°F

Alexandria Temperature Yesterday

Maximum temperature yesterday: 99 °F (at 5:00 PM)
Minimum temperature yesterday: 79 °F (at 3:00 AM)
Average temperature yesterday: 84 °F

High & Low Weather Summary for the Past Weeks

 TemperatureHumidityPressure
High99 °F (Jul 25, 5:00 PM)88% (Jul 14, 6:00 AM)29.92 "Hg (Jul 14, 6:00 AM)
Low72 °F (Jul 14, 6:00 AM)31% (Jul 25, 5:00 PM)29.65 "Hg (Jul 19, 7:00 AM)
Average81 °F61%29.77 "Hg
* Reported Jul 11 3:00 PM — Jul 26 1:00 PM, Alexandria, Weather by CustomWeather, © 2016

Note: Actual official high and low records may vary slightly from our data, if they occured in-between our weather recording intervals... More about our weather records

Advertising

Alexandria Weather History for the Previous 24 Hours

Scroll right to see more
 ConditionsComfort  
Time TempWeatherWind HumidityBarometerVisibility
1:00 PM
Tue, Jul 26
88 °FSunny.10 mph49%29.77 "Hg10 mi
12:00 PM88 °FPassing clouds.10 mph52%29.77 "HgN/A
11:00 AM86 °FScattered clouds.9 mph59%29.77 "HgN/A
10:40 AM84 °FScattered clouds.12 mph62%29.77 "HgN/A
8:00 AM82 °FSunny.12 mph70%29.74 "Hg10 mi
6:00 AM79 °FSunny.7 mph74%29.74 "Hg10 mi
4:00 AM77 °FClear.2 mph74%29.71 "Hg10 mi
3:00 AM77 °FClear.2 mph74%29.71 "Hg10 mi
2:00 AM77 °FClear.1 mph74%29.71 "Hg10 mi
1:00 AM77 °FClear.2 mph74%29.71 "Hg10 mi
12:00 AM79 °FClear.2 mph74%29.71 "Hg10 mi
11:00 PM
Mon, Jul 25
81 °FClear.6 mph70%29.71 "Hg10 mi
10:00 PM81 °FClear.8 mph66%29.71 "Hg10 mi
9:00 PM81 °FClear.8 mph66%29.71 "Hg10 mi
8:00 PM82 °FClear.5 mph62%29.71 "Hg10 mi
7:00 PM82 °FClear.7 mph58%29.71 "Hg10 mi
6:00 PM86 °FSunny.7 mph52%29.71 "Hg10 mi
5:00 PM99 °FSunny.9 mph31%29.71 "Hg10 mi
3:00 PM88 °FSunny.12 mph49%29.71 "Hg10 mi
2:00 PM88 °FSunny.10 mph52%29.71 "Hg10 mi
Weather by CustomWeather, © 2016

See weather overviewHow to use our weather pages